Flag for France Weather past 2 weeks in Biarritz, France

Now
61 °F

More clouds than sun.


Feels Like: 61 °F
Forecast: 54 / 59 °F
Wind: 13 mph from Northwest

Location: Biarritz Airport

Current Time: May 22, 2015 at 3:27:28 PM

Latest Report: May 22, 2015 at 3:00 PM


Visibility: N/A

Pressure: 30.36 "Hg

Humidity: 72%

Dew point: 52 °F

Location of BiarritzLocation

Historic Weather in Biarritz — Graph

°F

Biarritz temperature yesterday

Maximum temperature yesterday: 61 °F (at 3:00 PM)
Minimum temperature yesterday: 48 °F (at 4:00 AM)
Average temperature yesterday: 55 °F

Past Weeks' High & Low Weather Summary

 TemperatureHumidityPressure
High86 °F (May 10, 5:00 PM)100% (May 12, 3:30 AM)30.51 "Hg (May 12, 3:30 AM)
Low43 °F (May 22, 6:30 AM)37% (May 7, 4:30 PM)29.77 "Hg (May 8, 3:30 AM)
Average60 °F78%30.20 "Hg
* Reported May 7 2:00 PM — May 22 2:00 PM, Biarritz, Weather by CustomWeather, © 2015

Note: Actual official high and low records may vary slightly from our data, if they occured in-between our weather recording intervals... More about our weather records

Advertising

Biarritz weather history for previous 24 hours

 ConditionsComfort  
Time TempWeatherWind HumidityBarometerVisibility
2:00 PM
Fri, May 22
61 °FMore clouds than sun.12 mph72%30.36 "HgN/A
1:30 PM61 °FPartly sunny.12 mph72%30.36 "HgN/A
1:00 PM59 °FOvercast.9 mph72%30.36 "HgN/A
12:30 PM59 °FOvercast.9 mph68%30.39 "HgN/A
12:00 PM57 °FPartly sunny.9 mph72%30.39 "HgN/A
11:30 AM59 °FClear.8 mph68%30.39 "HgN/A
11:00 AM57 °FPartly sunny.5 mph77%30.39 "HgN/A
10:30 AM59 °FPartly sunny.2 mph68%30.39 "HgN/A
10:00 AM57 °FPassing clouds.2 mph72%30.39 "HgN/A
9:30 AM55 °FClear.2 mph77%30.39 "HgN/A
9:00 AM55 °FClear.No wind72%30.39 "HgN/A
8:30 AM52 °FClear.No wind82%30.39 "HgN/A
8:00 AM48 °FClear.1 mph94%30.39 "HgN/A
7:30 AM46 °FClear.7 mph87%30.39 "HgN/A
7:00 AM45 °FPassing clouds.6 mph93%30.39 "HgN/A
6:30 AM43 °FPassing clouds.3 mph93%30.39 "HgN/A
6:00 AM45 °FClear.5 mph87%30.39 "HgN/A
5:30 AM45 °FPassing clouds.3 mph93%30.39 "HgN/A
5:00 AM45 °FPassing clouds.5 mph93%30.39 "HgN/A
4:30 AM45 °FQuite cool.5 mph93%30.42 "HgN/A
4:00 AM45 °FQuite cool.5 mph93%30.42 "HgN/A
3:30 AM48 °FPassing clouds.2 mph87%30.42 "HgN/A
3:00 AM48 °FPassing clouds.3 mph82%30.42 "HgN/A
2:30 AM48 °FPassing clouds.3 mph82%30.42 "HgN/A
2:00 AM48 °FPassing clouds.5 mph82%30.42 "HgN/A
1:30 AM52 °FClear.5 mph72%30.45 "HgN/A
1:00 AM54 °FPassing clouds.2 mph63%30.45 "HgN/A
12:30 AM54 °FPassing clouds.2 mph67%30.45 "HgN/A
12:00 AM55 °FOvercast.5 mph67%30.45 "HgN/A
11:30 PM
Thu, May 21
55 °FPassing clouds.2 mph67%30.45 "HgN/A
10:30 PM55 °FPartly cloudy.3 mph63%30.45 "HgN/A
10:00 PM55 °FBroken clouds.6 mph63%30.45 "HgN/A
9:30 PM55 °FScattered clouds.8 mph63%30.45 "HgN/A
9:00 PM55 °FPartly sunny.9 mph63%30.45 "HgN/A
8:30 PM57 °FPassing clouds.12 mph63%30.42 "HgN/A
8:00 PM59 °FClear.12 mph55%30.42 "HgN/A
7:30 PM59 °FClear.12 mph59%30.42 "HgN/A
7:00 PM59 °FPassing clouds.12 mph63%30.42 "HgN/A
6:30 PM59 °FClear.13 mph63%30.42 "HgN/A
6:00 PM61 °FPassing clouds.13 mph63%30.42 "HgN/A
5:30 PM61 °FPassing clouds.13 mph59%30.42 "HgN/A
5:00 PM61 °FPartly sunny.10 mph63%30.42 "HgN/A
4:30 PM61 °FBroken clouds.13 mph63%30.42 "HgN/A
4:00 PM59 °FPartly sunny.14 mph68%30.42 "HgN/A
3:30 PM59 °FPartly sunny.13 mph68%30.42 "HgN/A
3:00 PM61 °FClear.10 mph59%30.42 "HgN/A
Weather by CustomWeather, © 2015

See weather overviewHow to use our weather pages